Year,Month,Day,Hour,Minute,Value (Times are PST for insolation in W/m^2)
2007,06,21,00,00,0.00
2007,06,21,00,01,0.00
2007,06,21,00,02,0.00
2007,06,21,00,03,0.00
2007,06,21,00,04,0.00
2007,06,21,00,05,0.00
2007,06,21,00,06,0.00
2007,06,21,00,07,0.00
2007,06,21,00,08,0.00
2007,06,21,00,09,0.00
2007,06,21,00,10,0.00
2007,06,21,00,11,0.00
2007,06,21,00,12,0.00
2007,06,21,00,13,0.00
2007,06,21,00,14,0.00
2007,06,21,00,15,0.00
2007,06,21,00,16,0.00
2007,06,21,00,17,0.00
2007,06,21,00,18,0.00
2007,06,21,00,19,0.00
2007,06,21,00,20,0.00
2007,06,21,00,21,0.00
2007,06,21,00,22,0.00
2007,06,21,00,23,0.00
2007,06,21,00,24,0.00
2007,06,21,00,25,0.00
2007,06,21,00,26,0.00
2007,06,21,00,27,0.00
2007,06,21,00,28,0.00
2007,06,21,00,29,0.00
2007,06,21,00,30,0.00
2007,06,21,00,31,0.00
2007,06,21,00,32,0.00
2007,06,21,00,33,0.00
2007,06,21,00,34,0.00
2007,06,21,00,35,0.00
2007,06,21,00,36,0.00
2007,06,21,00,37,0.00
2007,06,21,00,38,0.00
2007,06,21,00,39,0.00
2007,06,21,00,40,0.00
2007,06,21,00,41,0.00
2007,06,21,00,42,0.00
2007,06,21,00,43,0.00
2007,06,21,00,44,0.00
2007,06,21,00,45,0.00
2007,06,21,00,46,0.00
2007,06,21,00,47,0.00
2007,06,21,00,48,0.00
2007,06,21,00,49,0.00
2007,06,21,00,50,0.00
2007,06,21,00,51,0.00
2007,06,21,00,52,0.00
2007,06,21,00,53,0.00
2007,06,21,00,54,0.00
2007,06,21,00,55,0.00
2007,06,21,00,56,0.00
2007,06,21,00,57,0.00
2007,06,21,00,58,0.00
2007,06,21,00,59,0.00
2007,06,21,01,00,0.00
2007,06,21,01,01,0.00
2007,06,21,01,02,0.00
2007,06,21,01,03,0.00
2007,06,21,01,04,0.00
2007,06,21,01,05,0.00
2007,06,21,01,06,0.00
2007,06,21,01,07,0.00
2007,06,21,01,08,0.00
2007,06,21,01,09,0.00
2007,06,21,01,10,0.00
2007,06,21,01,11,0.00
2007,06,21,01,12,0.00
2007,06,21,01,13,0.00
2007,06,21,01,14,0.00
2007,06,21,01,15,0.00
2007,06,21,01,16,0.00
2007,06,21,01,17,0.00
2007,06,21,01,18,0.00
2007,06,21,01,19,0.00
2007,06,21,01,20,0.00
2007,06,21,01,21,0.00
2007,06,21,01,22,0.00
2007,06,21,01,23,0.00
2007,06,21,01,24,0.00
2007,06,21,01,25,0.00
2007,06,21,01,26,0.00
2007,06,21,01,27,0.00
2007,06,21,01,28,0.00
2007,06,21,01,29,0.00
2007,06,21,01,30,0.00
2007,06,21,01,31,0.00
2007,06,21,01,32,0.00
2007,06,21,01,33,0.00
2007,06,21,01,34,0.00
2007,06,21,01,35,0.00
2007,06,21,01,36,0.00
2007,06,21,01,37,0.00
2007,06,21,01,38,0.00
2007,06,21,01,39,0.00
2007,06,21,01,40,0.00
2007,06,21,01,41,0.00
2007,06,21,01,42,0.00
2007,06,21,01,43,0.00
2007,06,21,01,44,0.00
2007,06,21,01,45,0.00
2007,06,21,01,46,0.00
2007,06,21,01,47,0.00
2007,06,21,01,48,0.00
2007,06,21,01,49,0.00
2007,06,21,01,50,0.00
2007,06,21,01,51,0.00
2007,06,21,01,52,0.00
2007,06,21,01,53,0.00
2007,06,21,01,54,0.00
2007,06,21,01,55,0.00
2007,06,21,01,56,0.00
2007,06,21,01,57,0.00
2007,06,21,01,58,0.00
2007,06,21,01,59,0.00
2007,06,21,02,00,0.00
2007,06,21,02,01,0.00
2007,06,21,02,02,0.00
2007,06,21,02,03,0.00
2007,06,21,02,04,0.00
2007,06,21,02,05,0.00
2007,06,21,02,06,0.00
2007,06,21,02,07,0.00
2007,06,21,02,08,0.00
2007,06,21,02,09,0.00
2007,06,21,02,10,0.00
2007,06,21,02,11,0.00
2007,06,21,02,12,0.00
2007,06,21,02,13,0.00
2007,06,21,02,14,0.00
2007,06,21,02,15,0.00
2007,06,21,02,16,0.00
2007,06,21,02,17,0.00
2007,06,21,02,18,0.00
2007,06,21,02,19,0.00
2007,06,21,02,20,0.00
2007,06,21,02,21,0.00
2007,06,21,02,22,0.00
2007,06,21,02,23,0.00
2007,06,21,02,24,0.00
2007,06,21,02,25,0.00
2007,06,21,02,26,0.00
2007,06,21,02,27,0.00
2007,06,21,02,28,0.00
2007,06,21,02,29,0.00
2007,06,21,02,30,0.00
2007,06,21,02,31,0.00
2007,06,21,02,32,0.00
2007,06,21,02,33,0.00
2007,06,21,02,34,0.00
2007,06,21,02,35,0.00
2007,06,21,02,36,0.00
2007,06,21,02,37,0.00
2007,06,21,02,38,0.00
2007,06,21,02,39,0.00
2007,06,21,02,40,0.00
2007,06,21,02,41,0.00
2007,06,21,02,42,0.00
2007,06,21,02,43,0.00
2007,06,21,02,44,0.00
2007,06,21,02,45,0.00
2007,06,21,02,46,0.00
2007,06,21,02,47,0.00
2007,06,21,02,48,0.00
2007,06,21,02,49,0.00
2007,06,21,02,50,0.00
2007,06,21,02,51,0.00
2007,06,21,02,52,0.00
2007,06,21,02,53,0.00
2007,06,21,02,54,0.00
2007,06,21,02,55,0.00
2007,06,21,02,56,0.00
2007,06,21,02,57,0.00
2007,06,21,02,58,0.00
2007,06,21,02,59,0.00
2007,06,21,03,00,0.00
2007,06,21,03,01,0.00
2007,06,21,03,02,0.00
2007,06,21,03,03,0.00
2007,06,21,03,04,0.00
2007,06,21,03,05,0.00
2007,06,21,03,06,0.00
2007,06,21,03,07,0.00
2007,06,21,03,08,0.00
2007,06,21,03,09,0.00
2007,06,21,03,10,0.00
2007,06,21,03,11,0.00
2007,06,21,03,12,0.00
2007,06,21,03,13,0.00
2007,06,21,03,14,0.00
2007,06,21,03,15,0.00
2007,06,21,03,16,0.00
2007,06,21,03,17,0.00
2007,06,21,03,18,0.00
2007,06,21,03,19,0.00
2007,06,21,03,20,0.00
2007,06,21,03,21,0.00
2007,06,21,03,22,0.00
2007,06,21,03,23,0.00
2007,06,21,03,24,0.00
2007,06,21,03,25,0.00
2007,06,21,03,26,0.00
2007,06,21,03,27,0.00
2007,06,21,03,28,0.00
2007,06,21,03,29,0.00
2007,06,21,03,30,0.00
2007,06,21,03,31,0.00
2007,06,21,03,32,0.00
2007,06,21,03,33,0.00
2007,06,21,03,34,0.00
2007,06,21,03,35,0.00
2007,06,21,03,36,0.00
2007,06,21,03,37,0.00
2007,06,21,03,38,0.00
2007,06,21,03,39,0.00
2007,06,21,03,40,0.00
2007,06,21,03,41,0.00
2007,06,21,03,42,0.00
2007,06,21,03,43,0.00
2007,06,21,03,44,0.00
2007,06,21,03,45,0.00
2007,06,21,03,46,0.00
2007,06,21,03,47,0.00
2007,06,21,03,48,0.00
2007,06,21,03,49,0.00
2007,06,21,03,50,0.00
2007,06,21,03,51,0.00
2007,06,21,03,52,0.00
2007,06,21,03,53,0.00
2007,06,21,03,54,0.00
2007,06,21,03,55,0.00
2007,06,21,03,56,0.00
2007,06,21,03,57,0.00
2007,06,21,03,58,0.00
2007,06,21,03,59,0.00
2007,06,21,04,00,0.00
2007,06,21,04,01,0.00
2007,06,21,04,02,0.00
2007,06,21,04,03,0.00
2007,06,21,04,04,0.00
2007,06,21,04,05,0.00
2007,06,21,04,06,0.00
2007,06,21,04,07,0.00
2007,06,21,04,08,0.00
2007,06,21,04,09,0.00
2007,06,21,04,10,0.00
2007,06,21,04,11,0.00
2007,06,21,04,12,0.00
2007,06,21,04,13,0.00
2007,06,21,04,14,0.00
2007,06,21,04,15,0.00
2007,06,21,04,16,0.00
2007,06,21,04,17,0.00
2007,06,21,04,18,0.00
2007,06,21,04,19,0.00
2007,06,21,04,20,0.00
2007,06,21,04,21,0.00
2007,06,21,04,22,0.00
2007,06,21,04,23,0.00
2007,06,21,04,24,0.00
2007,06,21,04,25,0.00
2007,06,21,04,26,0.00
2007,06,21,04,27,0.00
2007,06,21,04,28,0.00
2007,06,21,04,29,0.00
2007,06,21,04,30,0.00
2007,06,21,04,31,0.00
2007,06,21,04,32,0.00
2007,06,21,04,33,0.00
2007,06,21,04,34,0.00
2007,06,21,04,35,0.00
2007,06,21,04,36,0.00
2007,06,21,04,37,0.00
2007,06,21,04,38,0.00
2007,06,21,04,39,0.00
2007,06,21,04,40,0.00
2007,06,21,04,41,0.00
2007,06,21,04,42,0.00
2007,06,21,04,43,0.00
2007,06,21,04,44,0.00
2007,06,21,04,45,0.00
2007,06,21,04,46,0.00
2007,06,21,04,47,0.00
2007,06,21,04,48,0.00
2007,06,21,04,49,0.00
2007,06,21,04,50,0.00
2007,06,21,04,51,0.00
2007,06,21,04,52,0.00
2007,06,21,04,53,0.00
2007,06,21,04,54,0.00
2007,06,21,04,55,0.00
2007,06,21,04,56,0.00
2007,06,21,04,57,0.00
2007,06,21,04,58,0.00
2007,06,21,04,59,0.00
2007,06,21,05,00,0.00
2007,06,21,05,01,0.00
2007,06,21,05,02,0.00
2007,06,21,05,03,0.00
2007,06,21,05,04,0.00
2007,06,21,05,05,0.00
2007,06,21,05,06,0.00
2007,06,21,05,07,0.00
2007,06,21,05,08,0.00
2007,06,21,05,09,0.00
2007,06,21,05,10,0.00
2007,06,21,05,11,0.00
2007,06,21,05,12,0.00
2007,06,21,05,13,0.00
2007,06,21,05,14,0.00
2007,06,21,05,15,0.00
2007,06,21,05,16,0.00
2007,06,21,05,17,0.00
2007,06,21,05,18,0.00
2007,06,21,05,19,0.00
2007,06,21,05,20,0.00
2007,06,21,05,21,0.00
2007,06,21,05,22,0.00
2007,06,21,05,23,0.00
2007,06,21,05,24,0.00
2007,06,21,05,25,0.00
2007,06,21,05,26,0.00
2007,06,21,05,27,0.00
2007,06,21,05,28,0.00
2007,06,21,05,29,0.00
2007,06,21,05,30,0.00
2007,06,21,05,31,0.00
2007,06,21,05,32,0.00
2007,06,21,05,33,0.30
2007,06,21,05,34,5.50
2007,06,21,05,35,7.00
2007,06,21,05,36,8.20
2007,06,21,05,37,7.70
2007,06,21,05,38,7.00
2007,06,21,05,39,5.20
2007,06,21,05,40,5.00
2007,06,21,05,41,5.00
2007,06,21,05,42,5.00
2007,06,21,05,43,5.00
2007,06,21,05,44,5.00
2007,06,21,05,45,7.20
2007,06,21,05,46,9.00
2007,06,21,05,47,10.00
2007,06,21,05,48,11.60
2007,06,21,05,49,12.00
2007,06,21,05,50,12.00
2007,06,21,05,51,13.90
2007,06,21,05,52,14.00
2007,06,21,05,53,15.10
2007,06,21,05,54,16.00
2007,06,21,05,55,16.00
2007,06,21,05,56,18.00
2007,06,21,05,57,19.00
2007,06,21,05,58,20.10
2007,06,21,05,59,24.10
2007,06,21,06,00,23.50
2007,06,21,06,01,21.20
2007,06,21,06,02,18.00
2007,06,21,06,03,15.10
2007,06,21,06,04,12.00
2007,06,21,06,05,12.00
2007,06,21,06,06,11.30
2007,06,21,06,07,11.00
2007,06,21,06,08,10.90
2007,06,21,06,09,9.00
2007,06,21,06,10,8.30
2007,06,21,06,11,7.00
2007,06,21,06,12,7.00
2007,06,21,06,13,8.90
2007,06,21,06,14,9.00
2007,06,21,06,15,9.40
2007,06,21,06,16,10.20
2007,06,21,06,17,9.00
2007,06,21,06,18,9.00
2007,06,21,06,19,9.00
2007,06,21,06,20,9.00
2007,06,21,06,21,9.00
2007,06,21,06,22,9.00
2007,06,21,06,23,10.30
2007,06,21,06,24,11.00
2007,06,21,06,25,11.00
2007,06,21,06,26,12.00
2007,06,21,06,27,12.00
2007,06,21,06,28,12.90
2007,06,21,06,29,14.00
2007,06,21,06,30,15.70
2007,06,21,06,31,18.00
2007,06,21,06,32,19.00
2007,06,21,06,33,19.00
2007,06,21,06,34,19.00
2007,06,21,06,35,19.00
2007,06,21,06,36,19.00
2007,06,21,06,37,19.00
2007,06,21,06,38,19.00
2007,06,21,06,39,19.70
2007,06,21,06,40,21.00
2007,06,21,06,41,21.00
2007,06,21,06,42,21.00
2007,06,21,06,43,21.10
2007,06,21,06,44,23.00
2007,06,21,06,45,23.70
2007,06,21,06,46,25.40
2007,06,21,06,47,27.20
2007,06,21,06,48,29.50
2007,06,21,06,49,31.80
2007,06,21,06,50,33.40
2007,06,21,06,51,35.70
2007,06,21,06,52,38.10
2007,06,21,06,53,39.00
2007,06,21,06,54,39.00
2007,06,21,06,55,39.00
2007,06,21,06,56,39.00
2007,06,21,06,57,39.30
2007,06,21,06,58,41.30
2007,06,21,06,59,43.60
2007,06,21,07,00,42.10
2007,06,21,07,01,37.30
2007,06,21,07,02,34.40
2007,06,21,07,03,33.00
2007,06,21,07,04,33.00
2007,06,21,07,05,33.00
2007,06,21,07,06,32.20
2007,06,21,07,07,32.00
2007,06,21,07,08,32.30
2007,06,21,07,09,33.00
2007,06,21,07,10,34.10
2007,06,21,07,11,33.30
2007,06,21,07,12,32.00
2007,06,21,07,13,30.00
2007,06,21,07,14,30.90
2007,06,21,07,15,33.00
2007,06,21,07,16,33.00
2007,06,21,07,17,32.20
2007,06,21,07,18,30.40
2007,06,21,07,19,30.00
2007,06,21,07,20,30.00
2007,06,21,07,21,30.00
2007,06,21,07,22,31.80
2007,06,21,07,23,34.80
2007,06,21,07,24,37.10
2007,06,21,07,25,39.20
2007,06,21,07,26,40.70
2007,06,21,07,27,43.70
2007,06,21,07,28,47.80
2007,06,21,07,29,52.80
2007,06,21,07,30,56.00
2007,06,21,07,31,56.60
2007,06,21,07,32,57.20
2007,06,21,07,33,54.20
2007,06,21,07,34,50.40
2007,06,21,07,35,47.10
2007,06,21,07,36,47.00
2007,06,21,07,37,47.30
2007,06,21,07,38,48.20
2007,06,21,07,39,47.00
2007,06,21,07,40,47.00
2007,06,21,07,41,48.90
2007,06,21,07,42,53.10
2007,06,21,07,43,59.40
2007,06,21,07,44,64.80
2007,06,21,07,45,68.30
2007,06,21,07,46,69.60
2007,06,21,07,47,71.70
2007,06,21,07,48,74.20
2007,06,21,07,49,76.30
2007,06,21,07,50,78.90
2007,06,21,07,51,82.50
2007,06,21,07,52,89.80
2007,06,21,07,53,96.00
2007,06,21,07,54,100.50
2007,06,21,07,55,105.60
2007,06,21,07,56,108.10
2007,06,21,07,57,109.00
2007,06,21,07,58,116.60
2007,06,21,07,59,123.00
2007,06,21,08,00,129.00
2007,06,21,08,01,135.80
2007,06,21,08,02,141.80
2007,06,21,08,03,146.40
2007,06,21,08,04,148.90
2007,06,21,08,05,149.00
2007,06,21,08,06,148.50
2007,06,21,08,07,145.30
2007,06,21,08,08,139.90
2007,06,21,08,09,131.80
2007,06,21,08,10,130.00
2007,06,21,08,11,119.90
2007,06,21,08,12,118.40
2007,06,21,08,13,121.00
2007,06,21,08,14,125.90
2007,06,21,08,15,135.00
2007,06,21,08,16,150.30
2007,06,21,08,17,156.20
2007,06,21,08,18,158.50
2007,06,21,08,19,162.10
2007,06,21,08,20,165.00
2007,06,21,08,21,186.30
2007,06,21,08,22,201.40
2007,06,21,08,23,205.30
2007,06,21,08,24,228.80
2007,06,21,08,25,216.60
2007,06,21,08,26,203.70
2007,06,21,08,27,189.70
2007,06,21,08,28,172.00
2007,06,21,08,29,170.30
2007,06,21,08,30,179.50
2007,06,21,08,31,180.30
2007,06,21,08,32,208.90
2007,06,21,08,33,220.00
2007,06,21,08,34,481.50
2007,06,21,08,35,443.00
2007,06,21,08,36,348.70
2007,06,21,08,37,160.00
2007,06,21,08,38,160.00
2007,06,21,08,39,160.00
2007,06,21,08,40,334.00
2007,06,21,08,41,334.00
2007,06,21,08,42,352.10
2007,06,21,08,43,383.00
2007,06,21,08,44,275.20
2007,06,21,08,45,214.90
2007,06,21,08,46,213.00
2007,06,21,08,47,234.00
2007,06,21,08,48,234.00
2007,06,21,08,49,234.00
2007,06,21,08,50,560.40
2007,06,21,08,51,677.00
2007,06,21,08,52,654.70
2007,06,21,08,53,263.80
2007,06,21,08,54,197.60
2007,06,21,08,55,183.00
2007,06,21,08,56,183.00
2007,06,21,08,57,146.40
2007,06,21,08,58,142.00
2007,06,21,08,59,142.80
2007,06,21,09,00,149.00
2007,06,21,09,01,163.80
2007,06,21,09,02,181.20
2007,06,21,09,03,198.30
2007,06,21,09,04,224.10
2007,06,21,09,05,237.10
2007,06,21,09,06,232.00
2007,06,21,09,07,238.00
2007,06,21,09,08,230.00
2007,06,21,09,09,223.00
2007,06,21,09,10,200.70
2007,06,21,09,11,181.10
2007,06,21,09,12,168.70
2007,06,21,09,13,161.60
2007,06,21,09,14,156.70
2007,06,21,09,15,153.00
2007,06,21,09,16,151.40
2007,06,21,09,17,154.60
2007,06,21,09,18,162.50
2007,06,21,09,19,173.20
2007,06,21,09,20,182.30
2007,06,21,09,21,193.00
2007,06,21,09,22,205.60
2007,06,21,09,23,217.20
2007,06,21,09,24,223.00
2007,06,21,09,25,242.60
2007,06,21,09,26,284.10
2007,06,21,09,27,288.00
2007,06,21,09,28,288.00
2007,06,21,09,29,288.00
2007,06,21,09,30,288.00
2007,06,21,09,31,288.00
2007,06,21,09,32,288.00
2007,06,21,09,33,629.00
2007,06,21,09,34,629.00
2007,06,21,09,35,709.80
2007,06,21,09,36,830.30
2007,06,21,09,37,837.00
2007,06,21,09,38,837.00
2007,06,21,09,39,789.90
2007,06,21,09,40,367.30
2007,06,21,09,41,383.40
2007,06,21,09,42,394.80
2007,06,21,09,43,371.60
2007,06,21,09,44,412.50
2007,06,21,09,45,387.10
2007,06,21,09,46,332.00
2007,06,21,09,47,332.00
2007,06,21,09,48,275.20
2007,06,21,09,49,229.50
2007,06,21,09,50,223.00
2007,06,21,09,51,220.70
2007,06,21,09,52,216.30
2007,06,21,09,53,209.70
2007,06,21,09,54,200.30
2007,06,21,09,55,187.70
2007,06,21,09,56,185.00
2007,06,21,09,57,183.90
2007,06,21,09,58,191.70
2007,06,21,09,59,205.40
2007,06,21,10,00,220.60
2007,06,21,10,01,234.30
2007,06,21,10,02,246.00
2007,06,21,10,03,253.70
2007,06,21,10,04,257.30
2007,06,21,10,05,256.50
2007,06,21,10,06,250.10
2007,06,21,10,07,248.00
2007,06,21,10,08,247.50
2007,06,21,10,09,237.40
2007,06,21,10,10,239.70
2007,06,21,10,11,242.10
2007,06,21,10,12,245.20
2007,06,21,10,13,249.60
2007,06,21,10,14,247.90
2007,06,21,10,15,246.00
2007,06,21,10,16,250.00
2007,06,21,10,17,260.90
2007,06,21,10,18,272.10
2007,06,21,10,19,286.20
2007,06,21,10,20,297.80
2007,06,21,10,21,315.10
2007,06,21,10,22,346.40
2007,06,21,10,23,385.70
2007,06,21,10,24,401.00
2007,06,21,10,25,635.00
2007,06,21,10,26,635.00
2007,06,21,10,27,567.40
2007,06,21,10,28,363.80
2007,06,21,10,29,346.20
2007,06,21,10,30,345.00
2007,06,21,10,31,345.00
2007,06,21,10,32,349.60
2007,06,21,10,33,379.20
2007,06,21,10,34,445.60
2007,06,21,10,35,428.50
2007,06,21,10,36,438.30
2007,06,21,10,37,443.00
2007,06,21,10,38,441.60
2007,06,21,10,39,436.20
2007,06,21,10,40,428.80
2007,06,21,10,41,452.90
2007,06,21,10,42,486.60
2007,06,21,10,43,489.80
2007,06,21,10,44,554.00
2007,06,21,10,45,554.00
2007,06,21,10,46,895.70
2007,06,21,10,47,1120.60
2007,06,21,10,48,1086.00
2007,06,21,10,49,1084.60
2007,06,21,10,50,1067.80
2007,06,21,10,51,1099.00
2007,06,21,10,52,1099.00
2007,06,21,10,53,1099.00
2007,06,21,10,54,455.70
2007,06,21,10,55,416.60
2007,06,21,10,56,499.00
2007,06,21,10,57,499.00
2007,06,21,10,58,499.00
2007,06,21,10,59,499.00
2007,06,21,11,00,499.00
2007,06,21,11,01,498.10
2007,06,21,11,02,461.70
2007,06,21,11,03,392.80
2007,06,21,11,04,394.00
2007,06,21,11,05,394.00
2007,06,21,11,06,385.50
2007,06,21,11,07,385.00
2007,06,21,11,08,548.60
2007,06,21,11,09,974.00
2007,06,21,11,10,974.00
2007,06,21,11,11,442.00
2007,06,21,11,12,309.00
2007,06,21,11,13,309.00
2007,06,21,11,14,309.00
2007,06,21,11,15,309.00
2007,06,21,11,16,309.00
2007,06,21,11,17,309.00
2007,06,21,11,18,766.70
2007,06,21,11,19,858.50
2007,06,21,11,20,861.00
2007,06,21,11,21,861.00
2007,06,21,11,22,862.30
2007,06,21,11,23,867.20
2007,06,21,11,24,875.00
2007,06,21,11,25,888.20
2007,06,21,11,26,905.50
2007,06,21,11,27,935.90
2007,06,21,11,28,951.00
2007,06,21,11,29,951.00
2007,06,21,11,30,951.00
2007,06,21,11,31,951.00
2007,06,21,11,32,951.00
2007,06,21,11,33,716.90
2007,06,21,11,34,429.40
2007,06,21,11,35,427.00
2007,06,21,11,36,457.80
2007,06,21,11,37,1037.40
2007,06,21,11,38,1005.30
2007,06,21,11,39,972.90
2007,06,21,11,40,951.90
2007,06,21,11,41,931.00
2007,06,21,11,42,901.30
2007,06,21,11,43,872.00
2007,06,21,11,44,877.90
2007,06,21,11,45,886.00
2007,06,21,11,46,887.50
2007,06,21,11,47,888.00
2007,06,21,11,48,882.60
2007,06,21,11,49,863.20
2007,06,21,11,50,889.90
2007,06,21,11,51,891.00
2007,06,21,11,52,902.10
2007,06,21,11,53,891.70
2007,06,21,11,54,891.00
2007,06,21,11,55,892.10
2007,06,21,11,56,895.50
2007,06,21,11,57,897.40
2007,06,21,11,58,899.70
2007,06,21,11,59,900.00
2007,06,21,12,00,900.00
2007,06,21,12,01,899.30
2007,06,21,12,02,899.10
2007,06,21,12,03,900.00
2007,06,21,12,04,901.80
2007,06,21,12,05,903.70
2007,06,21,12,06,904.50
2007,06,21,12,07,907.70
2007,06,21,12,08,909.00
2007,06,21,12,09,909.00
2007,06,21,12,10,910.80
2007,06,21,12,11,912.00
2007,06,21,12,12,914.00
2007,06,21,12,13,914.00
2007,06,21,12,14,915.20
2007,06,21,12,15,917.50
2007,06,21,12,16,918.00
2007,06,21,12,17,918.90
2007,06,21,12,18,919.00
2007,06,21,12,19,919.00
2007,06,21,12,20,918.40
2007,06,21,12,21,919.90
2007,06,21,12,22,921.00
2007,06,21,12,23,920.80
2007,06,21,12,24,918.70
2007,06,21,12,25,921.80
2007,06,21,12,26,923.00
2007,06,21,12,27,924.60
2007,06,21,12,28,891.00
2007,06,21,12,29,924.50
2007,06,21,12,30,929.20
2007,06,21,12,31,922.10
2007,06,21,12,32,935.00
2007,06,21,12,33,959.50
2007,06,21,12,34,962.00
2007,06,21,12,35,960.20
2007,06,21,12,36,944.50
2007,06,21,12,37,937.90
2007,06,21,12,38,939.00
2007,06,21,12,39,953.30
2007,06,21,12,40,990.70
2007,06,21,12,41,998.00
2007,06,21,12,42,998.00
2007,06,21,12,43,998.00
2007,06,21,12,44,998.00
2007,06,21,12,45,998.00
2007,06,21,12,46,998.00
2007,06,21,12,47,998.00
2007,06,21,12,48,998.00
2007,06,21,12,49,998.00
2007,06,21,12,50,883.90
2007,06,21,12,51,840.00
2007,06,21,12,52,830.20
2007,06,21,12,53,629.10
2007,06,21,12,54,577.00
2007,06,21,12,55,577.00
2007,06,21,12,56,577.00
2007,06,21,12,57,577.00
2007,06,21,12,58,586.90
2007,06,21,12,59,819.60
2007,06,21,13,00,897.30
2007,06,21,13,01,939.00
2007,06,21,13,02,939.00
2007,06,21,13,03,726.10
2007,06,21,13,04,773.00
2007,06,21,13,05,773.00
2007,06,21,13,06,773.00
2007,06,21,13,07,773.00
2007,06,21,13,08,583.50
2007,06,21,13,09,588.90
2007,06,21,13,10,566.40
2007,06,21,13,11,560.10
2007,06,21,13,12,550.00
2007,06,21,13,13,550.00
2007,06,21,13,14,550.00
2007,06,21,13,15,550.00
2007,06,21,13,16,516.40
2007,06,21,13,17,497.00
2007,06,21,13,18,939.80
2007,06,21,13,19,1438.00
2007,06,21,13,20,822.00
2007,06,21,13,21,668.00
2007,06,21,13,22,503.50
2007,06,21,13,23,496.00
2007,06,21,13,24,658.50
2007,06,21,13,25,886.00
2007,06,21,13,26,886.00
2007,06,21,13,27,886.00
2007,06,21,13,28,939.50
2007,06,21,13,29,1225.00
2007,06,21,13,30,1225.00
2007,06,21,13,31,1225.00
2007,06,21,13,32,1225.00
2007,06,21,13,33,1225.00
2007,06,21,13,34,1225.00
2007,06,21,13,35,1225.00
2007,06,21,13,36,951.40
2007,06,21,13,37,654.50
2007,06,21,13,38,597.30
2007,06,21,13,39,624.50
2007,06,21,13,40,583.90
2007,06,21,13,41,525.30
2007,06,21,13,42,537.20
2007,06,21,13,43,540.20
2007,06,21,13,44,573.10
2007,06,21,13,45,575.00
2007,06,21,13,46,578.20
2007,06,21,13,47,568.10
2007,06,21,13,48,541.00
2007,06,21,13,49,581.30
2007,06,21,13,50,578.80
2007,06,21,13,51,568.40
2007,06,21,13,52,487.60
2007,06,21,13,53,487.60
2007,06,21,13,54,485.00
2007,06,21,13,55,488.20
2007,06,21,13,56,489.00
2007,06,21,13,57,489.00
2007,06,21,13,58,489.00
2007,06,21,13,59,774.20
2007,06,21,14,00,1095.00
2007,06,21,14,01,1095.00
2007,06,21,14,02,1002.00
2007,06,21,14,03,982.60
2007,06,21,14,04,974.00
2007,06,21,14,05,963.50
2007,06,21,14,06,955.10
2007,06,21,14,07,949.80
2007,06,21,14,08,949.00
2007,06,21,14,09,950.10
2007,06,21,14,10,957.20
2007,06,21,14,11,973.50
2007,06,21,14,12,983.00
2007,06,21,14,13,957.20
2007,06,21,14,14,954.50
2007,06,21,14,15,977.20
2007,06,21,14,16,1034.30
2007,06,21,14,17,1033.30
2007,06,21,14,18,1032.00
2007,06,21,14,19,1032.00
2007,06,21,14,20,1007.80
2007,06,21,14,21,578.80
2007,06,21,14,22,534.00
2007,06,21,14,23,552.90
2007,06,21,14,24,499.00
2007,06,21,14,25,481.70
2007,06,21,14,26,454.30
2007,06,21,14,27,494.00
2007,06,21,14,28,494.00
2007,06,21,14,29,494.00
2007,06,21,14,30,450.40
2007,06,21,14,31,416.10
2007,06,21,14,32,385.80
2007,06,21,14,33,364.60
2007,06,21,14,34,353.00
2007,06,21,14,35,329.60
2007,06,21,14,36,303.60
2007,06,21,14,37,285.00
2007,06,21,14,38,282.80
2007,06,21,14,39,262.60
2007,06,21,14,40,259.90
2007,06,21,14,41,270.00
2007,06,21,14,42,295.10
2007,06,21,14,43,332.00
2007,06,21,14,44,339.60
2007,06,21,14,45,395.00
2007,06,21,14,46,433.50
2007,06,21,14,47,450.00
2007,06,21,14,48,450.00
2007,06,21,14,49,450.00
2007,06,21,14,50,494.20
2007,06,21,14,51,789.00
2007,06,21,14,52,789.00
2007,06,21,14,53,789.00
2007,06,21,14,54,789.00
2007,06,21,14,55,789.00
2007,06,21,14,56,789.00
2007,06,21,14,57,685.60
2007,06,21,14,58,482.00
2007,06,21,14,59,454.70
2007,06,21,15,00,444.50
2007,06,21,15,01,429.90
2007,06,21,15,02,407.20
2007,06,21,15,03,391.20
2007,06,21,15,04,387.60
2007,06,21,15,05,382.80
2007,06,21,15,06,358.30
2007,06,21,15,07,328.80
2007,06,21,15,08,305.30
2007,06,21,15,09,291.40
2007,06,21,15,10,286.00
2007,06,21,15,11,287.30
2007,06,21,15,12,296.50
2007,06,21,15,13,297.00
2007,06,21,15,14,297.00
2007,06,21,15,15,297.00
2007,06,21,15,16,297.00
2007,06,21,15,17,297.00
2007,06,21,15,18,421.20
2007,06,21,15,19,388.00
2007,06,21,15,20,382.40
2007,06,21,15,21,394.00
2007,06,21,15,22,394.00
2007,06,21,15,23,541.20
2007,06,21,15,24,578.00
2007,06,21,15,25,578.00
2007,06,21,15,26,565.30
2007,06,21,15,27,559.00
2007,06,21,15,28,601.10
2007,06,21,15,29,610.00
2007,06,21,15,30,1009.10
2007,06,21,15,31,1120.00
2007,06,21,15,32,949.10
2007,06,21,15,33,695.50
2007,06,21,15,34,661.80
2007,06,21,15,35,633.00
2007,06,21,15,36,633.00
2007,06,21,15,37,506.00
2007,06,21,15,38,492.60
2007,06,21,15,39,467.00
2007,06,21,15,40,510.90
2007,06,21,15,41,453.10
2007,06,21,15,42,430.80
2007,06,21,15,43,515.00
2007,06,21,15,44,463.40
2007,06,21,15,45,368.90
2007,06,21,15,46,369.10
2007,06,21,15,47,387.10
2007,06,21,15,48,395.80
2007,06,21,15,49,462.00
2007,06,21,15,50,462.00
2007,06,21,15,51,526.40
2007,06,21,15,52,564.00
2007,06,21,15,53,843.50
2007,06,21,15,54,947.00
2007,06,21,15,55,947.00
2007,06,21,15,56,947.00
2007,06,21,15,57,903.00
2007,06,21,15,58,881.00
2007,06,21,15,59,1053.00
2007,06,21,16,00,966.60
2007,06,21,16,01,915.00
2007,06,21,16,02,877.80
2007,06,21,16,03,849.50
2007,06,21,16,04,838.00
2007,06,21,16,05,838.00
2007,06,21,16,06,838.70
2007,06,21,16,07,814.00
2007,06,21,16,08,822.80
2007,06,21,16,09,831.60
2007,06,21,16,10,835.90
2007,06,21,16,11,837.00
2007,06,21,16,12,841.80
2007,06,21,16,13,856.00
2007,06,21,16,14,732.00
2007,06,21,16,15,608.00
2007,06,21,16,16,380.40
2007,06,21,16,17,421.50
2007,06,21,16,18,510.70
2007,06,21,16,19,534.00
2007,06,21,16,20,534.00
2007,06,21,16,21,534.00
2007,06,21,16,22,534.00
2007,06,21,16,23,527.30
2007,06,21,16,24,415.20
2007,06,21,16,25,425.00
2007,06,21,16,26,430.00
2007,06,21,16,27,470.80
2007,06,21,16,28,546.30
2007,06,21,16,29,553.80
2007,06,21,16,30,595.80
2007,06,21,16,31,519.30
2007,06,21,16,32,492.30
2007,06,21,16,33,467.70
2007,06,21,16,34,468.80
2007,06,21,16,35,555.00
2007,06,21,16,36,555.00
2007,06,21,16,37,555.00
2007,06,21,16,38,555.00
2007,06,21,16,39,555.00
2007,06,21,16,40,555.00
2007,06,21,16,41,540.30
2007,06,21,16,42,415.00
2007,06,21,16,43,415.00
2007,06,21,16,44,724.90
2007,06,21,16,45,868.00
2007,06,21,16,46,439.00
2007,06,21,16,47,408.00
2007,06,21,16,48,383.40
2007,06,21,16,49,325.00
2007,06,21,16,50,320.00
2007,06,21,16,51,316.60
2007,06,21,16,52,319.30
2007,06,21,16,53,319.60
2007,06,21,16,54,318.00
2007,06,21,16,55,318.00
2007,06,21,16,56,315.90
2007,06,21,16,57,308.80
2007,06,21,16,58,299.00
2007,06,21,16,59,288.80
2007,06,21,17,00,281.20
2007,06,21,17,01,277.10
2007,06,21,17,02,276.00
2007,06,21,17,03,276.00
2007,06,21,17,04,331.20
2007,06,21,17,05,343.40
2007,06,21,17,06,305.20
2007,06,21,17,07,285.80
2007,06,21,17,08,279.00
2007,06,21,17,09,261.10